Location: Cedar Brake
(32.2526°N, 97.8459°W)
Time: 17:32:14
(UTC+00:00)

SL-4 R/B - Pass Details

Date: 22 April 2026
Orbit: 380 x 506 km, 51.6° (Epoch: 9 May)

Event Time Altitude Azimuth Distance (km) Brightness Sun altitude
Rises 10:53:32 0° 311° (NW) 2,579 5.2 -12.9°
Reaches altitude 10° 10:55:46 10° 308° (NW) 1,679 4.2 -12.5°
Maximum altitude 10:59:31 61° 228° (SW) 546 1.7 -11.8°
Drops below altitude 10° 11:03:06 10° 147° (SSE) 1,606 4.5 -11.1°
Sets 11:05:13 0° 144° (SE) 2,454 5.5 -10.7°
